Time,TemperatureF,DewpointF,PressureIn,WindDirection,WindDirectionDegrees,WindSpeedMPH,WindSpeedGustMPH,Humidity,HourlyPrecipIn,Conditions,Clouds,dailyrainin,SolarRadiationWatts/m^2,SoftwareType,DateUTC
2013-01-13 00:12:00,17.0,8.0,-100.00,NW,309,10.0,17.0,67,0.00,,,0.00,0.000000,,2013-01-13 06:12:00,
2013-01-13 00:22:00,17.0,8.0,-100.00,NW,309,10.0,17.0,67,0.00,,,0.00,0.000000,,2013-01-13 06:22:00,
2013-01-13 00:32:00,17.0,8.0,-100.00,NW,309,10.0,17.0,67,0.00,,,0.00,0.000000,,2013-01-13 06:32:00,
2013-01-13 00:42:00,17.0,8.0,-100.00,NW,309,10.0,17.0,67,0.00,,,0.00,0.000000,,2013-01-13 06:42:00,
2013-01-13 01:12:00,16.0,7.0,-100.00,NW,307,10.0,15.0,68,0.00,,,0.00,0.000000,,2013-01-13 07:12:00,
2013-01-13 01:22:00,16.0,7.0,-100.00,NW,307,10.0,15.0,68,0.00,,,0.00,0.000000,,2013-01-13 07:22:00,
2013-01-13 01:32:00,16.0,7.0,-100.00,NW,307,10.0,15.0,68,0.00,,,0.00,0.000000,,2013-01-13 07:32:00,
2013-01-13 01:42:00,16.0,7.0,-100.00,NW,307,10.0,15.0,68,0.00,,,0.00,0.000000,,2013-01-13 07:42:00,
2013-01-13 02:12:00,14.0,5.0,-100.00,NW,307,7.0,12.0,67,0.00,,,0.00,0.000000,,2013-01-13 08:12:00,
2013-01-13 02:22:00,14.0,5.0,-100.00,NW,307,7.0,12.0,67,0.00,,,0.00,0.000000,,2013-01-13 08:22:00,
2013-01-13 02:32:00,14.0,5.0,-100.00,NW,307,7.0,12.0,67,0.00,,,0.00,0.000000,,2013-01-13 08:32:00,
2013-01-13 02:42:00,14.0,5.0,-100.00,NW,307,7.0,12.0,67,0.00,,,0.00,0.000000,,2013-01-13 08:42:00,
2013-01-13 03:12:00,12.0,4.0,-100.00,WNW,297,7.0,13.0,68,0.00,,,0.00,0.000000,,2013-01-13 09:12:00,
2013-01-13 03:22:00,12.0,4.0,-100.00,WNW,297,7.0,13.0,68,0.00,,,0.00,0.000000,,2013-01-13 09:22:00,
2013-01-13 03:32:00,12.0,4.0,-100.00,WNW,297,7.0,13.0,68,0.00,,,0.00,0.000000,,2013-01-13 09:32:00,
2013-01-13 03:42:00,12.0,4.0,-100.00,WNW,297,7.0,13.0,68,0.00,,,0.00,0.000000,,2013-01-13 09:42:00,
2013-01-13 04:12:00,11.0,3.0,-100.00,WNW,301,8.0,14.0,69,0.00,,,0.00,0.000000,,2013-01-13 10:12:00,
2013-01-13 04:22:00,11.0,3.0,-100.00,WNW,301,8.0,14.0,69,0.00,,,0.00,0.000000,,2013-01-13 10:22:00,
2013-01-13 04:32:00,11.0,3.0,-100.00,WNW,301,8.0,14.0,69,0.00,,,0.00,0.000000,,2013-01-13 10:32:00,
2013-01-13 04:42:00,11.0,3.0,-100.00,WNW,301,8.0,14.0,69,0.00,,,0.00,0.000000,,2013-01-13 10:42:00,
2013-01-13 05:12:00,9.0,1.0,-100.00,WNW,302,7.0,11.0,70,0.00,,,0.00,0.000000,,2013-01-13 11:12:00,
2013-01-13 05:22:00,9.0,1.0,-100.00,WNW,302,7.0,11.0,70,0.00,,,0.00,0.000000,,2013-01-13 11:22:00,
2013-01-13 05:32:00,9.0,1.0,-100.00,WNW,302,7.0,11.0,70,0.00,,,0.00,0.000000,,2013-01-13 11:32:00,
2013-01-13 05:42:00,9.0,1.0,-100.00,WNW,302,7.0,11.0,70,0.00,,,0.00,0.000000,,2013-01-13 11:42:00,
2013-01-13 06:12:00,9.0,2.0,-100.00,West,262,6.0,9.0,72,0.00,,,0.00,0.000000,,2013-01-13 12:12:00,
2013-01-13 06:22:00,9.0,2.0,-100.00,West,262,6.0,9.0,72,0.00,,,0.00,0.000000,,2013-01-13 12:22:00,
2013-01-13 06:33:00,9.0,2.0,-100.00,West,262,6.0,9.0,72,0.00,,,0.00,0.000000,,2013-01-13 12:33:00,
2013-01-13 06:42:00,9.0,2.0,-100.00,West,262,6.0,9.0,72,0.00,,,0.00,0.000000,,2013-01-13 12:42:00,
2013-01-13 07:12:00,8.0,1.0,-100.00,West,267,4.0,8.0,74,0.00,,,0.00,0.000000,,2013-01-13 13:12:00,
2013-01-13 07:22:00,8.0,1.0,-100.00,West,267,4.0,8.0,74,0.00,,,0.00,0.000000,,2013-01-13 13:22:00,
2013-01-13 07:33:00,8.0,1.0,-100.00,West,267,4.0,8.0,74,0.00,,,0.00,0.000000,,2013-01-13 13:33:00,
2013-01-13 07:42:00,8.0,1.0,-100.00,West,267,4.0,8.0,74,0.00,,,0.00,0.000000,,2013-01-13 13:42:00,
2013-01-13 08:12:00,9.0,2.0,-100.00,West,278,6.0,10.0,72,0.00,,,0.00,1.000000,,2013-01-13 14:12:00,
2013-01-13 08:22:00,9.0,2.0,-100.00,West,278,6.0,10.0,72,0.00,,,0.00,1.000000,,2013-01-13 14:22:00,
2013-01-13 08:33:00,9.0,2.0,-100.00,West,278,6.0,10.0,72,0.00,,,0.00,1.000000,,2013-01-13 14:33:00,
2013-01-13 08:43:00,9.0,2.0,-100.00,West,278,6.0,10.0,72,0.00,,,0.00,1.000000,,2013-01-13 14:43:00,
2013-01-13 09:12:00,10.0,1.0,-100.00,West,272,10.0,14.0,67,0.00,,,0.00,32.000000,,2013-01-13 15:12:00,
2013-01-13 09:23:00,10.0,1.0,-100.00,West,272,10.0,14.0,67,0.00,,,0.00,32.000000,,2013-01-13 15:23:00,
2013-01-13 09:33:00,10.0,1.0,-100.00,West,272,10.0,14.0,67,0.00,,,0.00,32.000000,,2013-01-13 15:33:00,
2013-01-13 09:43:00,10.0,1.0,-100.00,West,272,10.0,14.0,67,0.00,,,0.00,32.000000,,2013-01-13 15:43:00,
2013-01-13 10:12:00,12.0,1.0,-100.00,WNW,294,9.0,13.0,61,0.00,,,0.00,169.000000,,2013-01-13 16:12:00,
2013-01-13 10:23:00,12.0,1.0,-100.00,WNW,294,9.0,13.0,61,0.00,,,0.00,169.000000,,2013-01-13 16:23:00,
2013-01-13 10:33:00,12.0,1.0,-100.00,WNW,294,9.0,13.0,61,0.00,,,0.00,169.000000,,2013-01-13 16:33:00,
2013-01-13 10:43:00,12.0,1.0,-100.00,WNW,294,9.0,13.0,61,0.00,,,0.00,169.000000,,2013-01-13 16:43:00,
2013-01-13 11:12:00,12.0,1.0,-100.00,WNW,293,10.0,16.0,60,0.00,,,0.00,270.000000,,2013-01-13 17:12:00,
2013-01-13 11:22:00,12.0,1.0,-100.00,WNW,293,10.0,16.0,60,0.00,,,0.00,270.000000,,2013-01-13 17:22:00,
2013-01-13 11:33:00,12.0,1.0,-100.00,WNW,293,10.0,16.0,60,0.00,,,0.00,270.000000,,2013-01-13 17:33:00,
2013-01-13 11:42:00,12.0,1.0,-100.00,WNW,293,10.0,16.0,60,0.00,,,0.00,270.000000,,2013-01-13 17:42:00,
2013-01-13 12:12:00,13.0,1.0,-100.00,WNW,295,10.0,18.0,59,0.00,,,0.00,234.000000,,2013-01-13 18:12:00,
2013-01-13 12:23:00,13.0,1.0,-100.00,WNW,295,10.0,18.0,59,0.00,,,0.00,234.000000,,2013-01-13 18:23:00,
2013-01-13 12:33:00,13.0,1.0,-100.00,WNW,295,10.0,18.0,59,0.00,,,0.00,234.000000,,2013-01-13 18:33:00,
2013-01-13 12:42:00,13.0,1.0,-100.00,WNW,295,10.0,18.0,59,0.00,,,0.00,234.000000,,2013-01-13 18:42:00,
2013-01-13 13:12:00,14.0,2.0,-100.00,WNW,285,8.0,18.0,58,0.00,,,-99.99,324.000000,,2013-01-13 19:12:00,
2013-01-13 13:22:00,14.0,2.0,-100.00,WNW,285,8.0,18.0,58,0.00,,,-99.99,324.000000,,2013-01-13 19:22:00,
2013-01-13 13:33:00,14.0,2.0,-100.00,WNW,285,8.0,18.0,58,0.00,,,-99.99,324.000000,,2013-01-13 19:33:00,
2013-01-13 13:43:00,14.0,2.0,-100.00,WNW,285,8.0,18.0,58,0.00,,,-99.99,324.000000,,2013-01-13 19:43:00,
2013-01-13 14:12:00,13.0,1.0,-100.00,West,271,10.0,17.0,59,0.00,,,0.00,158.000000,,2013-01-13 20:12:00,
2013-01-13 14:22:00,13.0,1.0,-100.00,West,271,10.0,17.0,59,0.00,,,0.00,158.000000,,2013-01-13 20:22:00,
2013-01-13 14:33:00,13.0,1.0,-100.00,West,271,10.0,17.0,59,0.00,,,0.00,158.000000,,2013-01-13 20:33:00,
2013-01-13 14:43:00,13.0,1.0,-100.00,West,271,10.0,17.0,59,0.00,,,0.00,158.000000,,2013-01-13 20:43:00,
2013-01-13 15:12:00,13.0,2.0,-100.00,WNW,293,11.0,19.0,61,0.00,,,0.00,109.000000,,2013-01-13 21:12:00,
2013-01-13 15:23:00,13.0,2.0,-100.00,WNW,293,11.0,19.0,61,0.00,,,0.00,109.000000,,2013-01-13 21:23:00,
2013-01-13 15:33:00,13.0,2.0,-100.00,WNW,293,11.0,19.0,61,0.00,,,0.00,109.000000,,2013-01-13 21:33:00,
2013-01-13 15:43:00,13.0,2.0,-100.00,WNW,293,11.0,19.0,61,0.00,,,0.00,109.000000,,2013-01-13 21:43:00,
2013-01-13 16:12:00,13.0,3.0,-100.00,WNW,283,9.0,17.0,63,0.00,,,0.00,47.000000,,2013-01-13 22:12:00,
2013-01-13 16:22:00,13.0,3.0,-100.00,WNW,283,9.0,17.0,63,0.00,,,0.00,47.000000,,2013-01-13 22:22:00,
2013-01-13 16:33:00,13.0,3.0,-100.00,WNW,283,9.0,17.0,63,0.00,,,0.00,47.000000,,2013-01-13 22:33:00,
2013-01-13 16:43:00,13.0,3.0,-100.00,WNW,283,9.0,17.0,63,0.00,,,0.00,47.000000,,2013-01-13 22:43:00,
2013-01-13 17:12:00,12.0,4.0,-100.00,WNW,289,10.0,16.0,71,0.00,,,0.00,11.000000,,2013-01-13 23:12:00,
2013-01-13 17:22:00,12.0,4.0,-100.00,WNW,289,10.0,16.0,71,0.00,,,0.00,11.000000,,2013-01-13 23:22:00,
2013-01-13 17:33:00,12.0,4.0,-100.00,WNW,289,10.0,16.0,71,0.00,,,0.00,11.000000,,2013-01-13 23:33:00,
2013-01-13 17:42:00,12.0,4.0,-100.00,WNW,289,10.0,16.0,71,0.00,,,0.00,11.000000,,2013-01-13 23:42:00,
2013-01-13 18:12:00,12.0,3.0,-100.00,West,269,8.0,16.0,65,0.00,,,0.00,0.000000,,2013-01-14 00:12:00,
2013-01-13 18:22:00,12.0,3.0,-100.00,West,269,8.0,16.0,65,0.00,,,0.00,0.000000,,2013-01-14 00:22:00,
2013-01-13 18:33:00,12.0,3.0,-100.00,West,269,8.0,16.0,65,0.00,,,0.00,0.000000,,2013-01-14 00:33:00,
2013-01-13 18:43:00,12.0,3.0,-100.00,West,269,8.0,16.0,65,0.00,,,0.00,0.000000,,2013-01-14 00:43:00,
2013-01-13 19:12:00,12.0,3.0,-100.00,West,264,10.0,17.0,67,0.00,,,0.00,0.000000,,2013-01-14 01:12:00,
2013-01-13 19:22:00,12.0,3.0,-100.00,West,264,10.0,17.0,67,0.00,,,0.00,0.000000,,2013-01-14 01:22:00,
2013-01-13 19:32:00,12.0,3.0,-100.00,West,264,10.0,17.0,67,0.00,,,0.00,0.000000,,2013-01-14 01:32:00,
2013-01-13 19:42:00,12.0,3.0,-100.00,West,264,10.0,17.0,67,0.00,,,0.00,0.000000,,2013-01-14 01:42:00,
2013-01-13 20:12:00,12.0,2.0,-100.00,West,273,10.0,18.0,63,0.00,,,0.00,0.000000,,2013-01-14 02:12:00,
2013-01-13 20:22:00,12.0,2.0,-100.00,West,273,10.0,18.0,63,0.00,,,0.00,0.000000,,2013-01-14 02:22:00,
2013-01-13 20:32:00,12.0,2.0,-100.00,West,273,10.0,18.0,63,0.00,,,0.00,0.000000,,2013-01-14 02:32:00,
2013-01-13 20:42:00,12.0,2.0,-100.00,West,273,10.0,18.0,63,0.00,,,0.00,0.000000,,2013-01-14 02:42:00,
2013-01-13 21:12:00,10.0,-1.0,-100.00,West,274,13.0,22.0,59,0.00,,,0.00,0.000000,,2013-01-14 03:12:00,
2013-01-13 21:22:00,10.0,-1.0,-100.00,West,274,13.0,22.0,59,0.00,,,0.00,0.000000,,2013-01-14 03:22:00,
2013-01-13 21:32:00,10.0,-1.0,-100.00,West,274,13.0,22.0,59,0.00,,,0.00,0.000000,,2013-01-14 03:32:00,
2013-01-13 21:42:00,10.0,-1.0,-100.00,West,274,13.0,22.0,59,0.00,,,0.00,0.000000,,2013-01-14 03:42:00,
2013-01-13 22:12:00,10.0,-1.0,-100.00,West,269,13.0,21.0,61,0.00,,,0.00,0.000000,,2013-01-14 04:12:00,
2013-01-13 22:22:00,10.0,-1.0,-100.00,West,269,13.0,21.0,61,0.00,,,0.00,0.000000,,2013-01-14 04:22:00,
2013-01-13 22:32:00,10.0,-1.0,-100.00,West,269,13.0,21.0,61,0.00,,,0.00,0.000000,,2013-01-14 04:32:00,
2013-01-13 22:42:00,10.0,-1.0,-100.00,West,269,13.0,21.0,61,0.00,,,0.00,0.000000,,2013-01-14 04:42:00,
2013-01-13 23:12:00,9.0,0.0,-100.00,West,277,9.0,24.0,65,0.00,,,0.00,0.000000,,2013-01-14 05:12:00,
2013-01-13 23:22:00,9.0,0.0,-100.00,West,277,9.0,24.0,65,0.00,,,0.00,0.000000,,2013-01-14 05:22:00,
2013-01-13 23:32:00,9.0,0.0,-100.00,West,277,9.0,24.0,65,0.00,,,0.00,0.000000,,2013-01-14 05:32:00,
2013-01-13 23:42:00,9.0,0.0,-100.00,West,277,9.0,24.0,65,0.00,,,0.00,0.000000,,2013-01-14 05:42:00,